Home   Weather   Grenchen   Past weeks

Flag for Switzerland Past Weather in Grenchen, Solothurn, Switzerland — Yesterday and Last 2 Weeks

Now
56 °F

Cool.


Feels Like: 56 °F
Forecast: 42 / 71 °F
Wind: 1 mph from Southeast

Location: Grenchen

Current Time: Sep 27, 2016 at 7:32:26 AM

Latest Report: Sep 27, 2016 at 6:00 AM


Visibility: N/A

Pressure: 30.24 "Hg

Humidity: 98%

Dew Point: 55 °F

Location of GrenchenLocation

Past Weather in Grenchen — Graph

°F

Grenchen Temperature Yesterday

Maximum temperature yesterday: 70 °F (at 3:00 PM)
Minimum temperature yesterday: 51 °F (at 7:00 AM)
Average temperature yesterday: 60 °F

High & Low Weather Summary for the Past Weeks

 TemperatureHumidityPressure
High83 °F (Sep 13, 5:00 PM)100% (Sep 14, 7:00 AM)30.35 "Hg (Sep 14, 7:00 AM)
Low43 °F (Sep 22, 7:00 AM)44% (Sep 13, 5:00 PM)29.79 "Hg (Sep 14, 5:00 PM)
Average60 °F85%30.07 "Hg
* Reported Sep 12 6:00 AM — Sep 27 6:00 AM, Grenchen, Weather by CustomWeather, © 2016

Note: Actual official high and low records may vary slightly from our data, if they occured in-between our weather recording intervals... More about our weather records

Advertising

Grenchen Weather History for the Previous 24 Hours

Scroll right to see more
 ConditionsComfort  
Time TempWeatherWind HumidityBarometerVisibility
6:00 AM
Tue, Sep 27
56 °FCool.1 mph98%30.24 "HgN/A
5:00 AM56 °FCool.2 mph96%30.22 "HgN/A
4:00 AM57 °FCool.1 mph95%30.22 "HgN/A
3:00 AM57 °FCool.1 mph93%30.21 "HgN/A
2:00 AM58 °FCool.1 mph92%30.21 "HgN/A
1:00 AM57 °FCool.2 mph93%30.19 "HgN/A
12:00 AM57 °FCool.No wind92%30.21 "HgN/A
11:00 PM
Mon, Sep 26
56 °FCool.1 mph92%30.21 "HgN/A
10:00 PM56 °FCool.1 mph91%30.20 "HgN/A
9:00 PM59 °FCool.2 mph86%30.18 "HgN/A
8:00 PM60 °FCool.1 mph80%30.16 "HgN/A
7:00 PM64 °FMild.5 mph69%30.14 "HgN/A
6:00 PM67 °FMild.6 mph62%30.11 "HgN/A
5:00 PM69 °FMild.6 mph59%30.10 "HgN/A
4:00 PM70 °FMild.9 mph59%30.10 "HgN/A
3:00 PM70 °FMild.13 mph60%30.10 "HgN/A
2:00 PM69 °FMild.13 mph63%30.11 "HgN/A
1:00 PM69 °FMild.12 mph65%30.13 "HgN/A
12:00 PM67 °FMild.7 mph68%30.15 "HgN/A
11:00 AM63 °FMild.5 mph81%30.18 "HgN/A
10:00 AM58 °FCool.3 mph91%30.19 "HgN/A
9:00 AM55 °FCool.2 mph98%30.20 "HgN/A
8:00 AM53 °FCool.3 mph99%30.21 "HgN/A
7:00 AM51 °FCool.2 mph99%30.21 "HgN/A
Weather by CustomWeather, © 2016

See weather overviewHow to use our weather pages